EN

Hourly Weather Almodovar

Today, 19 January, Tuesday

Time Temperature Precipitation Wind Pressure Humidity
00:00 +7°C° 0 mm 0 mps 756 mmHg 71%
01:00 +7°C° 0 mm 0 mps 756 mmHg 73%
02:00 +7°C° 0 mm 0 mps 755 mmHg 75%
03:00 +7°C° 0 mm 1 mps 755 mmHg 78%
04:00 +7°C° 0 mm 1 mps 755 mmHg 79%
05:00 +7°C° 0 mm 1 mps 755 mmHg 81%
06:00 +7°C° 0 mm 1 mps 755 mmHg 82%
07:00 +7°C° 0 mm 1 mps 755 mmHg 79%
08:00 +8°C° 0 mm 1 mps 755 mmHg 77%
09:00 +9°C° 0 mm 1 mps 755 mmHg 74%
10:00 +11°C° 0 mm 1 mps 754 mmHg 68%
11:00 +13°C° 0 mm 1 mps 754 mmHg 62%
12:00 +14°C° 0 mm 1 mps 754 mmHg 55%
13:00 +15°C° 0 mm 1 mps 754 mmHg 55%
14:00 +15°C° 0 mm 1 mps 753 mmHg 55%
15:00 +15°C° 0 mm 2 mps 752 mmHg 54%
16:00 +13°C° 0 mm 1 mps 752 mmHg 62%
17:00 +12°C° 0 mm 1 mps 752 mmHg 70%
18:00 +10°C° 0 mm 1 mps 752 mmHg 78%
19:00 +10°C° 0 mm 1 mps 752 mmHg 81%
20:00 +9°C° 0 mm 1 mps 752 mmHg 84%
21:00 +8°C° 0 mm 0 mps 751 mmHg 86%
22:00 +9°C° 0 mm 1 mps 751 mmHg 87%
23:00 +9°C° 0 mm 1 mps 751 mmHg 87%

Tomorrow, 20 January, Wednesday

Time Temperature Precipitation Wind Pressure Humidity
00:00 +9°C° 0 mm 1 mps 751 mmHg 87%
01:00 +9°C° 0 mm 1 mps 750 mmHg 86%
02:00 +8°C° 0 mm 2 mps 750 mmHg 85%
03:00 +8°C° 0 mm 2 mps 749 mmHg 84%
04:00 +8°C° 0 mm 2 mps 749 mmHg 83%
05:00 +9°C° 0 mm 3 mps 748 mmHg 82%
06:00 +9°C° 0 mm 3 mps 748 mmHg 81%
07:00 +9°C° 0.5 mm 3 mps 748 mmHg 82%
08:00 +9°C° 0.5 mm 3 mps 747 mmHg 83%
09:00 +9°C° 0.5 mm 3 mps 747 mmHg 83%
10:00 +10°C° 2.9 mm 3 mps 747 mmHg 87%
11:00 +10°C° 2.9 mm 4 mps 746 mmHg 90%
12:00 +9°C° 2.9 mm 5 mps 746 mmHg 93%
13:00 +10°C° 1.2 mm 5 mps 746 mmHg 91%
14:00 +11°C° 1.2 mm 6 mps 745 mmHg 88%
15:00 +13°C° 1.2 mm 6 mps 744 mmHg 86%
16:00 +13°C° 0.2 mm 6 mps 745 mmHg 86%
17:00 +12°C° 0.2 mm 5 mps 745 mmHg 86%
18:00 +11°C° 0.2 mm 4 mps 745 mmHg 86%
19:00 +11°C° 0 mm 4 mps 746 mmHg 88%
20:00 +10°C° 0 mm 4 mps 747 mmHg 90%
21:00 +10°C° 0 mm 3 mps 747 mmHg 93%
22:00 +9°C° 0 mm 3 mps 748 mmHg 94%
23:00 +9°C° 0 mm 3 mps 748 mmHg 94%

Day after tomorrow, 21 January, Thursday

Time Temperature Precipitation Wind Pressure Humidity
00:00 +9°C° 0 mm 3 mps 748 mmHg 95%
01:00 +9°C° 0 mm 2 mps 748 mmHg 96%
02:00 +9°C° 0 mm 2 mps 749 mmHg 96%
03:00 +8°C° 0 mm 2 mps 749 mmHg 97%
04:00 +8°C° 0 mm 2 mps 749 mmHg 97%
05:00 +8°C° 0 mm 2 mps 749 mmHg 97%
06:00 +8°C° 0 mm 2 mps 749 mmHg 97%
07:00 +9°C° 0 mm 2 mps 749 mmHg 96%
08:00 +9°C° 0 mm 2 mps 750 mmHg 95%
09:00 +10°C° 0 mm 3 mps 750 mmHg 95%
10:00 +11°C° 0 mm 4 mps 750 mmHg 90%
11:00 +13°C° 0 mm 5 mps 750 mmHg 86%
12:00 +14°C° 0 mm 6 mps 750 mmHg 81%
13:00 +14°C° 0.1 mm 6 mps 749 mmHg 82%
14:00 +14°C° 0.1 mm 7 mps 749 mmHg 82%
15:00 +14°C° 0.1 mm 7 mps 748 mmHg 83%
16:00 +14°C° 0.3 mm 7 mps 748 mmHg 85%
17:00 +14°C° 0.3 mm 7 mps 748 mmHg 88%
18:00 +12°C° 0.3 mm 7 mps 748 mmHg 90%
19:00 +12°C° 0.6 mm 7 mps 749 mmHg 91%
20:00 +13°C° 0.6 mm 6 mps 749 mmHg 93%
21:00 +13°C° 0.6 mm 6 mps 749 mmHg 94%
22:00 +13°C° 0.1 mm 5 mps 749 mmHg 95%
23:00 +13°C° 0.1 mm 4 mps 749 mmHg 96%

22 January, Friday

Time Temperature Precipitation Wind Pressure Humidity
00:00 +13°C° 0.1 mm 4 mps 749 mmHg 96%
01:00 +12°C° 0 mm 3 mps 749 mmHg 96%
02:00 +11°C° 0 mm 3 mps 749 mmHg 96%
03:00 +10°C° 0 mm 2 mps 749 mmHg 96%
04:00 +10°C° 0 mm 2 mps 749 mmHg 97%
05:00 +10°C° 0 mm 2 mps 749 mmHg 97%
06:00 +10°C° 0 mm 3 mps 749 mmHg 97%
07:00 +10°C° 0 mm 3 mps 749 mmHg 96%
08:00 +11°C° 0 mm 4 mps 749 mmHg 95%
09:00 +12°C° 0 mm 5 mps 749 mmHg 94%
10:00 +13°C° 0.3 mm 6 mps 749 mmHg 89%
11:00 +12°C° 0.3 mm 8 mps 749 mmHg 85%
12:00 +13°C° 0.3 mm 9 mps 749 mmHg 80%
13:00 +13°C° 0.3 mm 8 mps 749 mmHg 73%
14:00 +14°C° 0.3 mm 7 mps 748 mmHg 67%
15:00 +15°C° 0.3 mm 7 mps 748 mmHg 60%
16:00 +13°C° 0 mm 5 mps 749 mmHg 66%
17:00 +12°C° 0 mm 4 mps 750 mmHg 71%
18:00 +10°C° 0 mm 3 mps 751 mmHg 77%
19:00 +9°C° 0 mm 3 mps 752 mmHg 80%
20:00 +9°C° 0 mm 2 mps 752 mmHg 82%
21:00 +8°C° 0 mm 2 mps 753 mmHg 85%
22:00 +8°C° 0 mm 1 mps 753 mmHg 86%
23:00 +8°C° 0 mm 1 mps 754 mmHg 88%

23 January, Saturday

Time Temperature Precipitation Wind Pressure Humidity
00:00 +7°C° 0 mm 1 mps 754 mmHg 89%
01:00 +7°C° 0 mm 1 mps 754 mmHg 90%
02:00 +7°C° 0 mm 1 mps 754 mmHg 90%
03:00 +6°C° 0 mm 1 mps 754 mmHg 91%
04:00 +6°C° 0 mm 1 mps 754 mmHg 92%
05:00 +6°C° 0 mm 1 mps 753 mmHg 92%
06:00 +6°C° 0 mm 1 mps 753 mmHg 92%
07:00 +5°C° 0 mm 0 mps 754 mmHg 90%
08:00 +6°C° 0 mm 0 mps 754 mmHg 88%
09:00 +7°C° 0 mm 0 mps 755 mmHg 86%
10:00 +9°C° 0 mm 1 mps 754 mmHg 81%
11:00 +10°C° 0 mm 2 mps 754 mmHg 75%
12:00 +12°C° 0 mm 2 mps 754 mmHg 70%
13:00 +12°C° 0 mm 2 mps 753 mmHg 70%
14:00 +12°C° 0 mm 3 mps 753 mmHg 70%
15:00 +12°C° 0 mm 3 mps 752 mmHg 71%
16:00 +12°C° 0 mm 2 mps 752 mmHg 75%
17:00 +12°C° 0 mm 2 mps 752 mmHg 79%
18:00 +10°C° 0 mm 2 mps 752 mmHg 83%
19:00 +10°C° 0 mm 2 mps 752 mmHg 84%
20:00 +10°C° 0 mm 2 mps 753 mmHg 86%
21:00 +10°C° 0 mm 3 mps 753 mmHg 87%
22:00 +10°C° 0 mm 3 mps 753 mmHg 89%
23:00 +10°C° 0 mm 3 mps 753 mmHg 90%

24 January, Sunday

Time Temperature Precipitation Wind Pressure Humidity
00:00 +10°C° 0 mm 3 mps 752 mmHg 92%
01:00 +10°C° 0 mm 3 mps 752 mmHg 92%
02:00 +10°C° 0 mm 3 mps 752 mmHg 93%
03:00 +11°C° 0 mm 3 mps 752 mmHg 93%
04:00 +11°C° 0 mm 3 mps 752 mmHg 94%
05:00 +11°C° 0 mm 3 mps 751 mmHg 94%
06:00 +11°C° 0 mm 3 mps 751 mmHg 95%
07:00 +11°C° 0 mm 3 mps 752 mmHg 95%
08:00 +12°C° 0 mm 3 mps 752 mmHg 95%
09:00 +12°C° 0 mm 3 mps 752 mmHg 94%
10:00 +13°C° 0 mm 3 mps 752 mmHg 92%
11:00 +14°C° 0 mm 4 mps 752 mmHg 90%
12:00 +15°C° 0 mm 4 mps 752 mmHg 88%
13:00 +15°C° 0.1 mm 4 mps 752 mmHg 86%
14:00 +17°C° 0.1 mm 4 mps 752 mmHg 85%
15:00 +17°C° 0.1 mm 4 mps 751 mmHg 84%
16:00 +16°C° 0.1 mm 3 mps 751 mmHg 87%
17:00 +15°C° 0.1 mm 2 mps 751 mmHg 91%
18:00 +15°C° 0.1 mm 2 mps 751 mmHg 95%
19:00 +14°C° 0.1 mm 2 mps 752 mmHg 96%
20:00 +14°C° 0.1 mm 2 mps 752 mmHg 97%
21:00 +13°C° 0.1 mm 2 mps 752 mmHg 98%
22:00 +14°C° 0 mm 1 mps 753 mmHg 98%
23:00 +14°C° 0 mm 1 mps 753 mmHg 98%
Show more